Tracking 20719 objects as of 25-May-2020
HD Live streaming from Space Station
objects crossing your sky now

GALAXY 1R

Track GALAXY 1R now!
GALAXY 1R is classified as:


NORAD ID: 23016
Int'l Code: 1994-013A
Perigee: 36,069.0 km
Apogee: 36,112.7 km
Inclination: 10.3 °
Period: 1,451.3 minutes
Semi major axis: 42461 km
RCS: 8.3555 m2 (large)
Launch date: February 19, 1994
Source: United States (US)
Launch site: AIR FORCE EASTERN TEST RANGE (AFETR)

24 C-band; North America, Caribbean.
aabbcc
Your satellite tracking list
Your tracking list is empty




NASA's NSSDC Master Catalog

Two Line Element Set (TLE):
1 23016U 94013A   20143.70384588 +.00000062 +00000-0 +00000-0 0  9990
2 23016 010.2539 036.5132 0005140 335.6853 163.5597 00.99221286024198
Source of the keplerian elements: AFSPC